START_TIME,STEP,MOV.,M35,t_acc.,PL05,t_acc.,PL06,t_acc.,PL07,t_acc.
1979-07-04 12:00:48.700 ,1,0,0.,4.8,6.,4.8,2.,4.8,0.,4.8
1979-07-04 12:00:53.500 ,1,0,0.,4.8,11.,4.8,1.,4.8,0.,4.8
1979-07-04 12:00:58.300 ,1,0,0.,4.8,6.,4.8,2.,4.8,1.,4.8
1979-07-04 12:01:03.100 ,1,0,0.,4.8,8.,4.8,2.,4.8,0.,4.8
1979-07-04 12:01:07.900 ,1,0,0.,4.8,12.,4.8,0.,4.8,1.,4.8
1979-07-04 12:01:12.700 ,1,0,0.,4.8,10.,4.8,3.,4.8,0.,4.8
1979-07-04 12:01:17.500 ,1,0,0.,4.8,10.,4.8,2.,4.8,1.,4.8
1979-07-04 12:01:22.300 ,1,0,0.,4.8,10.,4.8,1.,4.8,1.,4.8
1979-07-04 12:01:27.100 ,1,0,0.,4.8,11.,4.8,1.,4.8,0.,4.8
1979-07-04 12:01:31.900 ,1,0,0.,4.8,9.,4.8,2.,4.8,1.,4.8
1979-07-04 12:01:36.700 ,2,0,0.,4.8,8.,4.8,0.,4.8,1.,4.8
1979-07-04 12:01:41.500 ,2,0,0.,4.8,6.,4.8,0.,4.8,0.,4.8
1979-07-04 12:01:46.300 ,2,0,0.,4.8,7.,4.8,3.,4.8,0.,4.8
1979-07-04 12:01:51.100 ,2,0,0.,4.8,11.,4.8,0.,4.8,1.,4.8
1979-07-04 12:01:55.900 ,2,0,0.,4.8,13.,4.8,1.,4.8,2.,4.8
1979-07-04 12:02:00.700 ,2,0,0.,4.8,3.,4.8,0.,4.8,1.,4.8
1979-07-04 12:02:05.500 ,2,0,0.,4.8,4.,4.8,1.,4.8,0.,4.8
1979-07-04 12:02:10.300 ,2,0,0.,4.8,8.,4.8,2.,4.8,0.,4.8
1979-07-04 12:02:15.100 ,2,0,0.,4.8,8.,4.8,0.,4.8,1.,4.8
1979-07-04 12:02:19.900 ,2,0,0.,4.8,6.,4.8,2.,4.8,0.,4.8
1979-07-04 12:02:24.700 ,3,0,0.,4.8,4.,4.8,1.,4.8,0.,4.8
1979-07-04 12:02:29.500 ,3,0,0.,4.8,10.,4.8,0.,4.8,2.,4.8
1979-07-04 12:02:34.300 ,3,0,0.,4.8,4.,4.8,1.,4.8,0.,4.8
1979-07-04 12:02:39.100 ,3,0,0.,4.8,4.,4.8,0.,4.8,1.,4.8
1979-07-04 12:02:43.900 ,3,0,0.,4.8,4.,4.8,4.,4.8,1.,4.8
1979-07-04 12:02:48.700 ,3,0,0.,4.8,3.,4.8,0.,4.8,1.,4.8
1979-07-04 12:02:53.500 ,3,0,0.,4.8,11.,4.8,2.,4.8,1.,4.8
1979-07-04 12:02:58.300 ,3,0,0.,4.8,9.,4.8,1.,4.8,1.,4.8
1979-07-04 12:03:03.100 ,3,0,0.,4.8,5.,4.8,0.,4.8,1.,4.8
1979-07-04 12:03:07.900 ,3,0,0.,4.8,8.,4.8,2.,4.8,1.,4.8
1979-07-04 12:03:12.700 ,4,0,0.,4.8,7.,4.8,0.,4.8,0.,4.8
1979-07-04 12:03:17.500 ,4,0,0.,4.8,5.,4.8,2.,4.8,0.,4.8
1979-07-04 12:03:22.300 ,4,0,0.,4.8,9.,4.8,1.,4.8,1.,4.8
1979-07-04 12:03:27.100 ,4,0,0.,4.8,6.,4.8,3.,4.8,0.,4.8
1979-07-04 12:03:31.900 ,4,0,0.,4.8,3.,4.8,0.,4.8,0.,4.8
1979-07-04 12:03:36.700 ,4,0,0.,4.8,5.,4.8,0.,4.8,0.,4.8
1979-07-04 12:03:41.500 ,4,0,0.,4.8,5.,4.8,0.,4.8,0.,4.8
1979-07-04 12:03:46.300 ,4,0,0.,4.8,8.,4.8,3.,4.8,2.,4.8
1979-07-04 12:03:51.100 ,4,0,0.,4.8,11.,4.8,0.,4.8,3.,4.8
1979-07-04 12:03:55.900 ,4,0,0.,4.8,7.,4.8,0.,4.8,0.,4.8
1979-07-04 12:04:00.700 ,5,0,0.,4.8,6.,4.8,1.,4.8,1.,4.8
1979-07-04 12:04:05.500 ,5,0,0.,4.8,2.,4.8,3.,4.8,2.,4.8
1979-07-04 12:04:10.300 ,5,0,0.,4.8,9.,4.8,0.,4.8,0.,4.8
1979-07-04 12:04:15.100 ,5,0,0.,4.8,2.,4.8,3.,4.8,0.,4.8
1979-07-04 12:04:19.900 ,5,0,0.,4.8,2.,4.8,0.,4.8,0.,4.8
1979-07-04 12:04:24.700 ,5,0,0.,4.8,4.,4.8,1.,4.8,1.,4.8
1979-07-04 12:04:29.500 ,5,0,0.,4.8,1.,4.8,2.,4.8,1.,4.8
1979-07-04 12:04:34.300 ,5,0,0.,4.8,3.,4.8,0.,4.8,2.,4.8
1979-07-04 12:04:39.100 ,5,0,0.,4.8,3.,4.8,0.,4.8,0.,4.8
1979-07-04 12:04:43.900 ,5,0,0.,4.8,6.,4.8,0.,4.8,0.,4.8
1979-07-04 12:04:48.700 ,6,0,0.,4.8,5.,4.8,1.,4.8,0.,4.8
1979-07-04 12:04:53.500 ,6,0,0.,4.8,3.,4.8,1.,4.8,0.,4.8
1979-07-04 12:04:58.300 ,6,0,0.,4.8,3.,4.8,0.,4.8,0.,4.8
1979-07-04 12:05:03.100 ,6,0,0.,4.8,3.,4.8,0.,4.8,0.,4.8
1979-07-04 12:05:07.900 ,6,0,0.,4.8,4.,4.8,0.,4.8,0.,4.8
1979-07-04 12:05:12.700 ,6,0,0.,4.8,3.,4.8,2.,4.8,0.,4.8
1979-07-04 12:05:17.500 ,6,0,0.,4.8,5.,4.8,1.,4.8,0.,4.8
1979-07-04 12:05:22.300 ,6,0,0.,4.8,3.,4.8,0.,4.8,0.,4.8
1979-07-04 12:05:27.100 ,6,0,0.,4.8,6.,4.8,0.,4.8,0.,4.8
1979-07-04 12:05:31.900 ,6,0,0.,4.8,1.,4.8,1.,4.8,0.,4.8
1979-07-04 12:05:36.700 ,7,0,0.,4.8,3.,4.8,1.,4.8,1.,4.8
1979-07-04 12:05:41.500 ,7,0,0.,4.8,2.,4.8,1.,4.8,1.,4.8
1979-07-04 12:05:46.300 ,7,0,0.,4.8,0.,4.8,0.,4.8,0.,4.8
1979-07-04 12:05:51.100 ,7,0,0.,4.8,1.,4.8,0.,4.8,0.,4.8
1979-07-04 12:05:55.900 ,7,0,0.,4.8,1.,4.8,0.,4.8,0.,4.8
1979-07-04 12:06:00.700 ,7,0,0.,4.8,1.,4.8,0.,4.8,0.,4.8
1979-07-04 12:06:05.500 ,7,0,0.,4.8,0.,4.8,1.,4.8,0.,4.8
1979-07-04 12:06:10.300 ,7,0,0.,4.8,0.,4.8,0.,4.8,0.,4.8
1979-07-04 12:06:15.100 ,7,0,0.,4.8,0.,4.8,0.,4.8,1.,4.8
1979-07-04 12:06:19.900 ,7,0,0.,4.8,1.,4.8,0.,4.8,0.,4.8
1979-07-04 12:06:24.700 ,7,0,0.,4.8,0.,4.8,0.,4.8,0.,4.8
1979-07-04 12:06:29.500 ,7,0,0.,4.8,0.,4.8,0.,4.8,0.,4.8
1979-07-04 12:06:34.300 ,7,0,0.,4.8,1.,4.8,0.,4.8,0.,4.8
1979-07-04 12:06:39.100 ,7,0,,0,,0,,0,,0
1979-07-04 12:06:43.900 ,7,0,0.,4.8,0.,4.8,0.,4.8,0.,4.8
1979-07-04 12:06:48.700 ,7,0,0.,4.8,1.,4.8,0.,4.8,0.,4.8
1979-07-04 12:06:53.500 ,7,0,0.,4.8,0.,4.8,0.,4.8,0.,4.8
1979-07-04 12:06:58.300 ,7,0,0.,4.8,0.,4.8,0.,4.8,0.,4.8
1979-07-04 12:07:03.100 ,7,0,0.,4.8,0.,4.8,2.,4.8,1.,4.8
1979-07-04 12:07:07.900 ,7,0,0.,4.8,0.,4.8,0.,4.8,1.,4.8
1979-07-04 12:07:12.700 ,6,0,0.,4.8,0.,4.8,0.,4.8,1.,4.8
1979-07-04 12:07:17.500 ,6,0,0.,4.8,0.,4.8,0.,4.8,0.,4.8
1979-07-04 12:07:22.300 ,6,0,0.,4.8,10.,4.8,0.,4.8,0.,4.8
1979-07-04 12:07:27.100 ,6,0,0.,4.8,5.,4.8,0.,4.8,0.,4.8
1979-07-04 12:07:31.900 ,6,0,0.,4.8,6.,4.8,2.,4.8,0.,4.8
1979-07-04 12:07:36.700 ,6,0,0.,4.8,6.,4.8,0.,4.8,1.,4.8
1979-07-04 12:07:41.500 ,6,0,0.,4.8,4.,4.8,0.,4.8,1.,4.8
1979-07-04 12:07:46.300 ,6,0,0.,4.8,3.,4.8,0.,4.8,0.,4.8
1979-07-04 12:07:51.100 ,6,0,0.,4.8,3.,4.8,1.,4.8,0.,4.8
1979-07-04 12:07:55.900 ,6,0,0.,4.8,4.,4.8,1.,4.8,0.,4.8
1979-07-04 12:08:00.700 ,5,0,0.,4.8,5.,4.8,0.,4.8,0.,4.8
1979-07-04 12:08:05.500 ,5,0,0.,4.8,4.,4.8,0.,4.8,0.,4.8
1979-07-04 12:08:10.300 ,5,0,0.,4.8,3.,4.8,2.,4.8,0.,4.8
1979-07-04 12:08:15.100 ,5,0,0.,4.8,3.,4.8,2.,4.8,0.,4.8
1979-07-04 12:08:19.900 ,5,0,0.,4.8,4.,4.8,0.,4.8,0.,4.8
1979-07-04 12:08:24.700 ,5,0,0.,4.8,9.,4.8,1.,4.8,0.,4.8
1979-07-04 12:08:29.500 ,5,0,0.,4.8,7.,4.8,1.,4.8,1.,4.8
1979-07-04 12:08:34.300 ,5,0,0.,4.8,3.,4.8,0.,4.8,1.,4.8
1979-07-04 12:08:39.100 ,5,0,0.,4.8,1.,4.8,1.,4.8,0.,4.8
1979-07-04 12:08:43.900 ,5,0,0.,4.8,5.,4.8,2.,4.8,0.,4.8
1979-07-04 12:08:48.700 ,4,0,0.,4.8,6.,4.8,0.,4.8,0.,4.8
1979-07-04 12:08:53.500 ,4,0,0.,4.8,5.,4.8,0.,4.8,1.,4.8
1979-07-04 12:08:58.300 ,4,0,0.,4.8,4.,4.8,3.,4.8,2.,4.8
1979-07-04 12:09:03.100 ,4,0,0.,4.8,10.,4.8,2.,4.8,1.,4.8
1979-07-04 12:09:07.900 ,4,0,0.,4.8,11.,4.8,5.,4.8,0.,4.8
1979-07-04 12:09:12.700 ,4,0,0.,4.8,5.,4.8,2.,4.8,0.,4.8
1979-07-04 12:09:17.500 ,4,0,0.,4.8,10.,4.8,1.,4.8,0.,4.8
1979-07-04 12:09:22.300 ,4,0,0.,4.8,3.,4.8,0.,4.8,1.,4.8
1979-07-04 12:09:27.100 ,4,0,0.,4.8,7.,4.8,1.,4.8,0.,4.8
1979-07-04 12:09:31.900 ,4,0,1.,4.8,8.,4.8,1.,4.8,2.,4.8
1979-07-04 12:09:36.700 ,3,0,0.,4.8,7.,4.8,2.,4.8,1.,4.8
1979-07-04 12:09:41.500 ,3,0,0.,4.8,2.,4.8,3.,4.8,1.,4.8
1979-07-04 12:09:46.300 ,3,0,0.,4.8,7.,4.8,1.,4.8,1.,4.8
1979-07-04 12:09:51.100 ,3,0,0.,4.8,11.,4.8,0.,4.8,0.,4.8
1979-07-04 12:09:55.900 ,3,0,0.,4.8,8.,4.8,2.,4.8,1.,4.8
1979-07-04 12:10:00.700 ,3,0,0.,4.8,1.,4.8,1.,4.8,0.,4.8
1979-07-04 12:10:05.500 ,3,0,0.,4.8,10.,4.8,2.,4.8,0.,4.8
1979-07-04 12:10:10.300 ,3,0,0.,4.8,6.,4.8,1.,4.8,0.,4.8
1979-07-04 12:10:15.100 ,3,0,0.,4.8,4.,4.8,2.,4.8,0.,4.8
1979-07-04 12:10:19.900 ,3,0,0.,4.8,3.,4.8,3.,4.8,3.,4.8
1979-07-04 12:10:24.700 ,2,0,0.,4.8,2.,4.8,0.,4.8,0.,4.8
1979-07-04 12:10:29.500 ,2,0,0.,4.8,6.,4.8,1.,4.8,0.,4.8
1979-07-04 12:10:34.300 ,2,0,0.,4.8,12.,4.8,2.,4.8,1.,4.8
1979-07-04 12:10:39.100 ,2,0,0.,4.8,8.,4.8,2.,4.8,0.,4.8
1979-07-04 12:10:43.900 ,2,0,0.,4.8,3.,4.8,1.,4.8,2.,4.8
1979-07-04 12:10:48.700 ,2,0,0.,4.8,13.,4.8,0.,4.8,0.,4.8
1979-07-04 12:10:53.500 ,2,0,0.,4.8,6.,4.8,2.,4.8,0.,4.8
1979-07-04 12:10:58.300 ,2,0,0.,4.8,5.,4.8,0.,4.8,0.,4.8
1979-07-04 12:11:03.100 ,2,0,0.,4.8,7.,4.8,0.,4.8,0.,4.8
1979-07-04 12:11:07.900 ,2,0,0.,4.8,9.,4.8,1.,4.8,1.,4.8
1979-07-04 12:11:12.700 ,1,0,0.,4.8,9.,4.8,1.,4.8,1.,4.8
1979-07-04 12:11:17.500 ,1,0,0.,4.8,5.,4.8,0.,4.8,0.,4.8
1979-07-04 12:11:22.300 ,1,0,0.,4.8,5.,4.8,0.,4.8,0.,4.8
1979-07-04 12:11:27.100 ,1,0,0.,4.8,13.,4.8,3.,4.8,1.,4.8
1979-07-04 12:11:31.900 ,1,0,0.,4.8,11.,4.8,2.,4.8,2.,4.8
1979-07-04 12:11:36.700 ,1,0,0.,4.8,13.,4.8,1.,4.8,2.,4.8
1979-07-04 12:11:41.500 ,1,0,0.,4.8,6.,4.8,1.,4.8,2.,4.8
1979-07-04 12:11:46.300 ,1,0,0.,4.8,12.,4.8,3.,4.8,0.,4.8
1979-07-04 12:11:51.100 ,1,0,0.,4.8,12.,4.8,1.,4.8,0.,4.8
1979-07-04 12:11:55.900 ,1,0,0.,4.8,8.,4.8,0.,4.8,0.,4.8
1979-07-04 12:12:00.700 ,0,0,0.,4.8,15.,4.8,1.,4.8,0.,4.8
1979-07-04 12:12:05.500 ,0,0,0.,4.8,9.,4.8,1.,4.8,1.,4.8
1979-07-04 12:12:10.300 ,0,0,0.,4.8,11.,4.8,0.,4.8,0.,4.8
1979-07-04 12:12:15.100 ,0,0,0.,4.8,11.,4.8,2.,4.8,1.,4.8
1979-07-04 12:12:19.900 ,0,0,0.,4.8,4.,4.8,1.,4.8,1.,4.8
1979-07-04 12:12:24.700 ,0,0,0.,4.8,9.,4.8,1.,4.8,0.,4.8
1979-07-04 12:12:29.500 ,0,0,0.,4.8,13.,4.8,2.,4.8,1.,4.8
1979-07-04 12:12:34.300 ,0,0,0.,4.8,11.,4.8,0.,4.8,1.,4.8
1979-07-04 12:12:39.100 ,0,0,0.,4.8,8.,4.8,1.,4.8,0.,4.8
1979-07-04 12:12:43.900 ,0,0,0.,4.8,4.,4.8,1.,4.8,0.,4.8
1979-07-04 12:12:48.700 ,0,0,0.,4.8,6.,4.8,0.,4.8,0.,4.8
1979-07-04 12:12:53.500 ,0,0,0.,4.8,12.,4.8,3.,4.8,0.,4.8
1979-07-04 12:12:58.300 ,0,0,0.,4.8,12.,4.8,2.,4.8,0.,4.8
1979-07-04 12:13:03.100 ,0,0,0.,4.8,10.,4.8,0.,4.8,1.,4.8
1979-07-04 12:13:07.900 ,0,0,0.,4.8,11.,4.8,3.,4.8,1.,4.8
1979-07-04 12:13:12.700 ,0,0,0.,4.8,7.,4.8,3.,4.8,1.,4.8
1979-07-04 12:13:17.500 ,0,0,0.,4.8,14.,4.8,0.,4.8,0.,4.8
1979-07-04 12:13:22.300 ,0,0,0.,4.8,11.,4.8,1.,4.8,0.,4.8
1979-07-04 12:13:27.100 ,0,0,0.,4.8,6.,4.8,1.,4.8,2.,4.8
1979-07-04 12:13:31.900 ,0,0,0.,4.8,10.,4.8,1.,4.8,1.,4.8
1979-07-04 12:13:36.700 ,1,0,0.,4.8,6.,4.8,1.,4.8,0.,4.8
1979-07-04 12:13:41.500 ,1,0,0.,4.8,7.,4.8,1.,4.8,0.,4.8
1979-07-04 12:13:46.300 ,1,0,0.,4.8,12.,4.8,1.,4.8,1.,4.8
1979-07-04 12:13:51.100 ,1,0,0.,4.8,16.,4.8,0.,4.8,1.,4.8
1979-07-04 12:13:55.900 ,1,0,0.,4.8,15.,4.8,1.,4.8,1.,4.8
1979-07-04 12:14:00.700 ,1,0,0.,4.8,12.,4.8,2.,4.8,0.,4.8
1979-07-04 12:14:05.500 ,1,0,0.,4.8,13.,4.8,3.,4.8,1.,4.8
1979-07-04 12:14:10.300 ,1,0,0.,4.8,11.,4.8,0.,4.8,0.,4.8
1979-07-04 12:14:15.100 ,1,0,0.,4.8,12.,4.8,1.,4.8,0.,4.8
1979-07-04 12:14:19.900 ,1,0,0.,4.8,5.,4.8,1.,4.8,0.,4.8
1979-07-04 12:14:24.700 ,2,0,0.,4.8,10.,4.8,1.,4.8,0.,4.8
1979-07-04 12:14:29.500 ,2,0,0.,4.8,6.,4.8,0.,4.8,0.,4.8
1979-07-04 12:14:34.300 ,2,0,0.,4.8,4.,4.8,2.,4.8,1.,4.8
1979-07-04 12:14:39.100 ,2,0,0.,4.8,12.,4.8,1.,4.8,2.,4.8
1979-07-04 12:14:43.900 ,2,0,0.,4.8,11.,4.8,1.,4.8,0.,4.8
1979-07-04 12:14:48.700 ,2,0,0.,4.8,6.,4.8,1.,4.8,0.,4.8
1979-07-04 12:14:53.500 ,2,0,0.,4.8,7.,4.8,1.,4.8,0.,4.8
1979-07-04 12:14:58.300 ,2,0,0.,4.8,6.,4.8,1.,4.8,1.,4.8
1979-07-04 12:15:03.100 ,2,0,0.,4.8,7.,4.8,0.,4.8,1.,4.8
1979-07-04 12:15:07.900 ,2,0,0.,4.8,10.,4.8,1.,4.8,0.,4.8
1979-07-04 12:15:12.700 ,3,0,0.,4.8,10.,4.8,1.,4.8,1.,4.8
1979-07-04 12:15:17.500 ,3,0,0.,4.8,7.,4.8,0.,4.8,1.,4.8
1979-07-04 12:15:22.300 ,3,0,0.,4.8,9.,4.8,0.,4.8,2.,4.8
1979-07-04 12:15:27.100 ,3,0,0.,4.8,10.,4.8,2.,4.8,0.,4.8
1979-07-04 12:15:31.900 ,3,0,1.,4.8,6.,4.8,1.,4.8,1.,4.8
1979-07-04 12:15:36.700 ,3,0,0.,4.8,1.,4.8,3.,4.8,1.,4.8
1979-07-04 12:15:41.500 ,3,0,0.,4.8,11.,4.8,0.,4.8,0.,4.8
1979-07-04 12:15:46.300 ,3,0,0.,4.8,5.,4.8,0.,4.8,0.,4.8
1979-07-04 12:15:51.100 ,3,0,0.,4.8,7.,4.8,0.,4.8,1.,4.8
1979-07-04 12:15:55.900 ,3,0,0.,4.8,4.,4.8,2.,4.8,1.,4.8
1979-07-04 12:16:00.700 ,4,0,0.,4.8,9.,4.8,2.,4.8,3.,4.8
1979-07-04 12:16:05.500 ,4,0,0.,4.8,3.,4.8,2.,4.8,2.,4.8
1979-07-04 12:16:10.300 ,4,0,0.,4.8,10.,4.8,3.,4.8,3.,4.8
1979-07-04 12:16:15.100 ,4,0,0.,4.8,7.,4.8,2.,4.8,1.,4.8
1979-07-04 12:16:19.900 ,4,0,0.,4.8,3.,4.8,2.,4.8,1.,4.8
1979-07-04 12:16:24.700 ,4,0,0.,4.8,4.,4.8,2.,4.8,0.,4.8
1979-07-04 12:16:29.500 ,4,0,0.,4.8,6.,4.8,4.,4.8,1.,4.8
1979-07-04 12:16:34.300 ,4,0,0.,4.8,7.,4.8,3.,4.8,0.,4.8
1979-07-04 12:16:39.100 ,4,0,0.,4.8,6.,4.8,1.,4.8,1.,4.8
1979-07-04 12:16:43.900 ,4,0,0.,4.8,9.,4.8,1.,4.8,3.,4.8
1979-07-04 12:16:48.700 ,5,0,0.,4.8,9.,4.8,3.,4.8,0.,4.8
1979-07-04 12:16:53.500 ,5,0,1.,4.8,5.,4.8,0.,4.8,1.,4.8
1979-07-04 12:16:58.300 ,5,0,0.,4.8,0.,4.8,1.,4.8,0.,4.8
1979-07-04 12:17:03.100 ,5,0,0.,4.8,5.,4.8,1.,4.8,1.,4.8
1979-07-04 12:17:07.900 ,5,0,0.,4.8,1.,4.8,1.,4.8,0.,4.8
1979-07-04 12:17:12.700 ,5,0,0.,4.8,3.,4.8,1.,4.8,0.,4.8
1979-07-04 12:17:17.500 ,5,0,0.,4.8,10.,4.8,0.,4.8,0.,4.8
1979-07-04 12:17:22.300 ,5,0,0.,4.8,1.,4.8,0.,4.8,0.,4.8
1979-07-04 12:17:27.100 ,5,0,0.,4.8,3.,4.8,0.,4.8,1.,4.8
1979-07-04 12:17:31.900 ,5,0,0.,4.8,1.,4.8,0.,4.8,0.,4.8
1979-07-04 12:17:36.700 ,6,0,0.,4.8,3.,4.8,1.,4.8,0.,4.8
1979-07-04 12:17:41.500 ,6,0,0.,4.8,3.,4.8,0.,4.8,0.,4.8
1979-07-04 12:17:46.300 ,6,0,0.,4.8,4.,4.8,0.,4.8,1.,4.8
1979-07-04 12:17:51.100 ,6,0,0.,4.8,1.,4.8,0.,4.8,2.,4.8
1979-07-04 12:17:55.900 ,6,0,0.,4.8,4.,4.8,1.,4.8,0.,4.8
1979-07-04 12:18:00.700 ,6,0,0.,4.8,7.,4.8,0.,4.8,2.,4.8
1979-07-04 12:18:05.500 ,6,0,0.,4.8,4.,4.8,2.,4.8,0.,4.8
1979-07-04 12:18:10.300 ,6,0,0.,4.8,5.,4.8,0.,4.8,0.,4.8
1979-07-04 12:18:15.100 ,6,0,0.,4.8,4.,4.8,1.,4.8,1.,4.8
1979-07-04 12:18:19.900 ,6,0,0.,4.8,0.,4.8,1.,4.8,2.,4.8
1979-07-04 12:18:24.700 ,7,0,0.,4.8,2.,4.8,1.,4.8,0.,4.8
1979-07-04 12:18:29.500 ,7,0,0.,4.8,2.,4.8,0.,4.8,2.,4.8
1979-07-04 12:18:34.300 ,7,0,0.,4.8,0.,4.8,0.,4.8,0.,4.8
1979-07-04 12:18:39.100 ,7,0,0.,4.8,0.,4.8,0.,4.8,0.,4.8
1979-07-04 12:18:43.900 ,7,0,0.,4.8,0.,4.8,0.,4.8,0.,4.8
1979-07-04 12:18:48.700 ,7,0,0.,4.8,0.,4.8,0.,4.8,0.,4.8
1979-07-04 12:18:53.500 ,7,0,0.,4.8,0.,4.8,0.,4.8,0.,4.8
1979-07-04 12:18:58.300 ,7,0,0.,4.8,0.,4.8,0.,4.8,0.,4.8
1979-07-04 12:19:03.100 ,7,0,0.,4.8,1.,4.8,0.,4.8,0.,4.8
1979-07-04 12:19:07.900 ,7,0,0.,4.8,0.,4.8,0.,4.8,0.,4.8
1979-07-04 12:19:12.700 ,7,0,0.,4.8,0.,4.8,0.,4.8,0.,4.8
1979-07-04 12:19:17.500 ,7,0,0.,4.8,1.,4.8,0.,4.8,1.,4.8
1979-07-04 12:19:22.300 ,7,0,0.,4.8,1.,4.8,0.,4.8,0.,4.8
1979-07-04 12:19:27.100 ,7,0,0.,4.8,1.,4.8,0.,4.8,0.,4.8
1979-07-04 12:19:31.900 ,7,0,0.,4.8,1.,4.8,0.,4.8,0.,4.8
1979-07-04 12:19:36.700 ,7,0,0.,4.8,0.,4.8,0.,4.8,0.,4.8
1979-07-04 12:19:41.500 ,7,0,0.,4.8,1.,4.8,0.,4.8,0.,4.8
1979-07-04 12:19:46.300 ,7,0,0.,4.8,0.,4.8,0.,4.8,0.,4.8
1979-07-04 12:19:51.100 ,7,0,0.,4.8,2.,4.8,0.,4.8,0.,4.8
1979-07-04 12:19:55.900 ,7,0,0.,4.8,1.,4.8,1.,4.8,1.,4.8
1979-07-04 12:20:00.700 ,6,0,0.,4.8,0.,4.8,0.,4.8,1.,4.8
1979-07-04 12:20:05.500 ,6,0,0.,4.8,0.,4.8,1.,4.8,0.,4.8
1979-07-04 12:20:10.300 ,6,0,0.,4.8,2.,4.8,0.,4.8,1.,4.8
1979-07-04 12:20:15.100 ,6,0,0.,4.8,5.,4.8,1.,4.8,0.,4.8
1979-07-04 12:20:19.900 ,6,0,0.,4.8,4.,4.8,1.,4.8,1.,4.8
1979-07-04 12:20:24.700 ,6,0,0.,4.8,0.,4.8,1.,4.8,0.,4.8
1979-07-04 12:20:29.500 ,6,0,0.,4.8,2.,4.8,0.,4.8,1.,4.8
1979-07-04 12:20:34.300 ,6,0,0.,4.8,4.,4.8,2.,4.8,0.,4.8
1979-07-04 12:20:39.100 ,6,0,0.,4.8,3.,4.8,0.,4.8,0.,4.8
1979-07-04 12:20:43.900 ,6,0,0.,4.8,4.,4.8,0.,4.8,0.,4.8
1979-07-04 12:20:48.700 ,5,0,0.,4.8,6.,4.8,1.,4.8,0.,4.8
1979-07-04 12:20:53.500 ,5,0,0.,4.8,3.,4.8,1.,4.8,0.,4.8
1979-07-04 12:20:58.300 ,5,0,0.,4.8,4.,4.8,0.,4.8,1.,4.8
1979-07-04 12:21:03.100 ,5,0,0.,4.8,3.,4.8,1.,4.8,0.,4.8
1979-07-04 12:21:07.900 ,5,0,0.,4.8,4.,4.8,1.,4.8,0.,4.8
1979-07-04 12:21:12.700 ,5,0,0.,4.8,4.,4.8,1.,4.8,0.,4.8
1979-07-04 12:21:17.500 ,5,0,0.,4.8,4.,4.8,1.,4.8,0.,4.8
1979-07-04 12:21:22.300 ,5,0,0.,4.8,5.,4.8,1.,4.8,0.,4.8
1979-07-04 12:21:27.100 ,5,0,0.,4.8,3.,4.8,2.,4.8,0.,4.8
1979-07-04 12:21:31.900 ,5,0,0.,4.8,3.,4.8,0.,4.8,1.,4.8
1979-07-04 12:21:36.700 ,4,0,0.,4.8,3.,4.8,0.,4.8,0.,4.8
1979-07-04 12:21:41.500 ,4,0,0.,4.8,3.,4.8,2.,4.8,1.,4.8
1979-07-04 12:21:46.300 ,4,0,0.,4.8,10.,4.8,1.,4.8,1.,4.8
1979-07-04 12:21:51.100 ,4,0,0.,4.8,11.,4.8,1.,4.8,2.,4.8
1979-07-04 12:21:55.900 ,4,0,0.,4.8,4.,4.8,1.,4.8,2.,4.8
1979-07-04 12:22:00.700 ,4,0,0.,4.8,10.,4.8,1.,4.8,0.,4.8
1979-07-04 12:22:05.500 ,4,0,0.,4.8,7.,4.8,4.,4.8,1.,4.8
1979-07-04 12:22:10.300 ,4,0,0.,4.8,7.,4.8,6.,4.8,0.,4.8
1979-07-04 12:22:15.100 ,4,0,0.,4.8,5.,4.8,3.,4.8,3.,4.8
1979-07-04 12:22:19.900 ,4,0,0.,4.8,2.,4.8,3.,4.8,0.,4.8
1979-07-04 12:22:24.700 ,3,0,0.,4.8,3.,4.8,2.,4.8,1.,4.8
1979-07-04 12:22:29.500 ,3,0,0.,4.8,7.,4.8,0.,4.8,0.,4.8
1979-07-04 12:22:34.300 ,3,0,0.,4.8,9.,4.8,1.,4.8,1.,4.8
1979-07-04 12:22:39.100 ,3,0,0.,4.8,11.,4.8,1.,4.8,1.,4.8
1979-07-04 12:22:43.900 ,3,0,0.,4.8,10.,4.8,1.,4.8,0.,4.8
1979-07-04 12:22:48.700 ,3,0,0.,4.8,5.,4.8,2.,4.8,1.,4.8
1979-07-04 12:22:53.500 ,3,0,0.,4.8,8.,4.8,3.,4.8,1.,4.8
1979-07-04 12:22:58.300 ,3,0,0.,4.8,4.,4.8,0.,4.8,1.,4.8
1979-07-04 12:23:03.100 ,3,0,0.,4.8,4.,4.8,0.,4.8,0.,4.8
1979-07-04 12:23:07.900 ,3,0,0.,4.8,11.,4.8,1.,4.8,1.,4.8
1979-07-04 12:23:12.700 ,2,0,0.,4.8,7.,4.8,1.,4.8,0.,4.8
1979-07-04 12:23:17.500 ,2,0,0.,4.8,5.,4.8,2.,4.8,0.,4.8
1979-07-04 12:23:22.300 ,2,0,0.,4.8,4.,4.8,1.,4.8,2.,4.8
1979-07-04 12:23:27.100 ,2,0,0.,4.8,11.,4.8,1.,4.8,0.,4.8
1979-07-04 12:23:31.900 ,2,0,0.,4.8,6.,4.8,2.,4.8,0.,4.8
1979-07-04 12:23:36.700 ,2,0,0.,4.8,3.,4.8,4.,4.8,1.,4.8
1979-07-04 12:23:41.500 ,2,0,0.,4.8,6.,4.8,0.,4.8,1.,4.8
1979-07-04 12:23:46.300 ,2,0,0.,4.8,6.,4.8,4.,4.8,0.,4.8
1979-07-04 12:23:51.100 ,2,0,0.,4.8,6.,4.8,0.,4.8,1.,4.8
1979-07-04 12:23:55.900 ,2,0,0.,4.8,12.,4.8,1.,4.8,1.,4.8
1979-07-04 12:24:00.700 ,1,0,0.,4.8,8.,4.8,2.,4.8,1.,4.8
1979-07-04 12:24:05.500 ,1,0,0.,4.8,8.,4.8,0.,4.8,0.,4.8
1979-07-04 12:24:10.300 ,1,0,0.,4.8,12.,4.8,3.,4.8,0.,4.8
1979-07-04 12:24:15.100 ,1,0,0.,4.8,4.,4.8,2.,4.8,0.,4.8
1979-07-04 12:24:19.900 ,1,0,0.,4.8,7.,4.8,2.,4.8,0.,4.8
1979-07-04 12:24:24.700 ,1,0,0.,4.8,14.,4.8,0.,4.8,1.,4.8
1979-07-04 12:24:29.500 ,1,0,0.,4.8,14.,4.8,1.,4.8,1.,4.8
1979-07-04 12:24:34.300 ,1,0,0.,4.8,14.,4.8,0.,4.8,0.,4.8
1979-07-04 12:24:39.100 ,1,0,0.,4.8,8.,4.8,1.,4.8,0.,4.8
1979-07-04 12:24:43.900 ,1,0,0.,4.8,7.,4.8,0.,4.8,0.,4.8
1979-07-04 12:24:48.700 ,0,0,0.,4.8,11.,4.8,0.,4.8,0.,4.8
1979-07-04 12:24:53.500 ,0,0,0.,4.8,14.,4.8,0.,4.8,0.,4.8
1979-07-04 12:24:58.300 ,0,0,0.,4.8,6.,4.8,3.,4.8,0.,4.8
1979-07-04 12:25:03.100 ,0,0,0.,4.8,12.,4.8,2.,4.8,1.,4.8
1979-07-04 12:25:07.900 ,0,0,0.,4.8,6.,4.8,1.,4.8,0.,4.8
1979-07-04 12:25:12.700 ,0,0,0.,4.8,11.,4.8,0.,4.8,2.,4.8
1979-07-04 12:25:17.500 ,0,0,0.,4.8,10.,4.8,0.,4.8,0.,4.8
1979-07-04 12:25:22.300 ,0,0,1.,4.8,5.,4.8,1.,4.8,1.,4.8
1979-07-04 12:25:27.100 ,0,0,0.,4.8,12.,4.8,1.,4.8,0.,4.8
1979-07-04 12:25:31.900 ,0,0,0.,4.8,4.,4.8,1.,4.8,1.,4.8
1979-07-04 12:25:36.700 ,0,0,0.,4.8,3.,4.8,1.,4.8,0.,4.8
1979-07-04 12:25:41.500 ,0,0,0.,4.8,7.,4.8,0.,4.8,0.,4.8
1979-07-04 12:25:46.300 ,0,0,0.,4.8,5.,4.8,2.,4.8,0.,4.8
1979-07-04 12:25:51.100 ,0,0,0.,4.8,9.,4.8,2.,4.8,0.,4.8
1979-07-04 12:25:55.900 ,0,0,0.,4.8,9.,4.8,1.,4.8,0.,4.8
1979-07-04 12:26:00.700 ,0,0,0.,4.8,11.,4.8,0.,4.8,0.,4.8
1979-07-04 12:26:05.500 ,0,0,0.,4.8,2.,4.8,1.,4.8,0.,4.8
1979-07-04 12:26:10.300 ,0,0,0.,4.8,4.,4.8,2.,4.8,1.,4.8
1979-07-04 12:26:15.100 ,0,0,0.,4.8,7.,4.8,0.,4.8,2.,4.8
1979-07-04 12:26:19.900 ,0,0,0.,4.8,8.,4.8,1.,4.8,0.,4.8
1979-07-04 12:26:24.700 ,1,0,0.,4.8,9.,4.8,1.,4.8,0.,4.8
1979-07-04 12:26:29.500 ,1,0,0.,4.8,8.,4.8,1.,4.8,1.,4.8
1979-07-04 12:26:34.300 ,1,0,0.,4.8,10.,4.8,2.,4.8,0.,4.8
1979-07-04 12:26:39.100 ,1,0,0.,4.8,1.,4.8,1.,4.8,0.,4.8
1979-07-04 12:26:43.900 ,1,0,0.,4.8,10.,4.8,2.,4.8,0.,4.8
1979-07-04 12:26:48.700 ,1,0,0.,4.8,8.,4.8,1.,4.8,2.,4.8
1979-07-04 12:26:53.500 ,1,0,0.,4.8,9.,4.8,0.,4.8,1.,4.8
1979-07-04 12:26:58.300 ,1,0,0.,4.8,7.,4.8,3.,4.8,1.,4.8
1979-07-04 12:27:03.100 ,1,0,0.,4.8,9.,4.8,2.,4.8,0.,4.8
1979-07-04 12:27:07.900 ,1,0,0.,4.8,13.,4.8,2.,4.8,0.,4.8
1979-07-04 12:27:12.700 ,2,0,0.,4.8,12.,4.8,0.,4.8,0.,4.8
1979-07-04 12:27:17.500 ,2,0,0.,4.8,13.,4.8,0.,4.8,1.,4.8
1979-07-04 12:27:22.300 ,2,0,0.,4.8,4.,4.8,2.,4.8,0.,4.8
1979-07-04 12:27:27.100 ,2,0,0.,4.8,5.,4.8,1.,4.8,1.,4.8
1979-07-04 12:27:31.900 ,2,0,0.,4.8,5.,4.8,1.,4.8,1.,4.8
1979-07-04 12:27:36.700 ,2,0,0.,4.8,3.,4.8,1.,4.8,0.,4.8
1979-07-04 12:27:41.500 ,2,0,0.,4.8,8.,4.8,0.,4.8,2.,4.8
1979-07-04 12:27:46.300 ,2,0,0.,4.8,4.,4.8,0.,4.8,1.,4.8
1979-07-04 12:27:51.100 ,2,0,0.,4.8,10.,4.8,0.,4.8,0.,4.8
1979-07-04 12:27:55.900 ,2,0,0.,4.8,9.,4.8,1.,4.8,1.,4.8
1979-07-04 12:28:00.700 ,3,0,0.,4.8,7.,4.8,1.,4.8,0.,4.8
1979-07-04 12:28:05.500 ,3,0,0.,4.8,6.,4.8,0.,4.8,2.,4.8
1979-07-04 12:28:10.300 ,3,0,0.,4.8,3.,4.8,0.,4.8,0.,4.8
1979-07-04 12:28:15.100 ,3,0,0.,4.8,2.,4.8,0.,4.8,0.,4.8
1979-07-04 12:28:19.900 ,3,0,0.,4.8,2.,4.8,3.,4.8,0.,4.8
1979-07-04 12:28:24.700 ,3,0,0.,4.8,9.,4.8,0.,4.8,0.,4.8
1979-07-04 12:28:29.500 ,3,0,0.,4.8,8.,4.8,1.,4.8,2.,4.8
1979-07-04 12:28:34.300 ,3,0,0.,4.8,3.,4.8,2.,4.8,0.,4.8
1979-07-04 12:28:39.100 ,3,0,0.,4.8,9.,4.8,2.,4.8,0.,4.8
1979-07-04 12:28:43.900 ,3,0,0.,4.8,7.,4.8,1.,4.8,0.,4.8
1979-07-04 12:28:48.700 ,4,0,0.,4.8,5.,4.8,1.,4.8,0.,4.8
1979-07-04 12:28:53.500 ,4,0,0.,4.8,6.,4.8,0.,4.8,2.,4.8
1979-07-04 12:28:58.300 ,4,0,0.,4.8,6.,4.8,1.,4.8,1.,4.8
1979-07-04 12:29:03.100 ,4,0,0.,4.8,9.,4.8,1.,4.8,1.,4.8
1979-07-04 12:29:07.900 ,4,0,0.,4.8,8.,4.8,2.,4.8,1.,4.8
1979-07-04 12:29:12.700 ,4,0,0.,4.8,5.,4.8,2.,4.8,3.,4.8
1979-07-04 12:29:17.500 ,4,0,0.,4.8,10.,4.8,2.,4.8,0.,4.8
1979-07-04 12:29:22.300 ,4,0,0.,4.8,5.,4.8,2.,4.8,2.,4.8
1979-07-04 12:29:27.100 ,4,0,0.,4.8,11.,4.8,0.,4.8,1.,4.8
1979-07-04 12:29:31.900 ,4,0,0.,4.8,10.,4.8,0.,4.8,1.,4.8
1979-07-04 12:29:36.700 ,5,0,0.,4.8,5.,4.8,3.,4.8,1.,4.8
1979-07-04 12:29:41.500 ,5,0,0.,4.8,4.,4.8,2.,4.8,1.,4.8
1979-07-04 12:29:46.300 ,5,0,0.,4.8,2.,4.8,1.,4.8,0.,4.8
1979-07-04 12:29:51.100 ,5,0,0.,4.8,0.,4.8,0.,4.8,0.,4.8
1979-07-04 12:29:55.900 ,5,0,0.,4.8,1.,4.8,0.,4.8,0.,4.8
1979-07-04 12:30:00.700 ,5,0,0.,4.8,1.,4.8,1.,4.8,0.,4.8
1979-07-04 12:30:05.500 ,5,0,0.,4.8,4.,4.8,1.,4.8,1.,4.8
1979-07-04 12:30:10.300 ,5,0,0.,4.8,1.,4.8,0.,4.8,0.,4.8
1979-07-04 12:30:15.100 ,5,0,0.,4.8,6.,4.8,0.,4.8,0.,4.8
1979-07-04 12:30:19.900 ,5,0,0.,4.8,2.,4.8,1.,4.8,0.,4.8
1979-07-04 12:30:24.700 ,6,0,0.,4.8,3.,4.8,1.,4.8,1.,4.8
1979-07-04 12:30:29.500 ,6,0,0.,4.8,2.,4.8,1.,4.8,0.,4.8
1979-07-04 12:30:34.300 ,6,0,0.,4.8,7.,4.8,1.,4.8,0.,4.8
1979-07-04 12:30:39.100 ,6,0,0.,4.8,0.,4.8,0.,4.8,1.,4.8
1979-07-04 12:30:43.900 ,6,0,0.,4.8,2.,4.8,0.,4.8,0.,4.8
1979-07-04 12:30:48.700 ,6,0,0.,4.8,1.,4.8,0.,4.8,2.,4.8
1979-07-04 12:30:53.500 ,6,0,0.,4.8,4.,4.8,0.,4.8,0.,4.8
1979-07-04 12:30:58.300 ,6,0,0.,4.8,3.,4.8,0.,4.8,0.,4.8
1979-07-04 12:31:03.100 ,6,0,0.,4.8,4.,4.8,1.,4.8,0.,4.8
1979-07-04 12:31:07.900 ,6,0,0.,4.8,2.,4.8,1.,4.8,0.,4.8
1979-07-04 12:31:12.700 ,7,0,0.,4.8,2.,4.8,1.,4.8,0.,4.8
1979-07-04 12:31:17.500 ,7,0,0.,4.8,3.,4.8,0.,4.8,0.,4.8
1979-07-04 12:31:22.300 ,7,0,0.,4.8,0.,4.8,0.,4.8,0.,4.8
1979-07-04 12:31:27.100 ,7,0,0.,4.8,0.,4.8,0.,4.8,0.,4.8
1979-07-04 12:31:31.900 ,7,0,0.,4.8,0.,4.8,0.,4.8,0.,4.8
1979-07-04 12:31:36.700 ,7,0,0.,4.8,1.,4.8,0.,4.8,0.,4.8
1979-07-04 12:31:41.500 ,7,0,0.,4.8,2.,4.8,0.,4.8,0.,4.8
1979-07-04 12:31:46.300 ,7,0,0.,4.8,1.,4.8,0.,4.8,0.,4.8
1979-07-04 12:31:51.100 ,7,0,0.,4.8,1.,4.8,0.,4.8,0.,4.8
1979-07-04 12:31:55.900 ,7,0,0.,4.8,0.,4.8,0.,4.8,0.,4.8
1979-07-04 12:32:00.700 ,7,0,0.,4.8,0.,4.8,0.,4.8,0.,4.8
1979-07-04 12:32:05.500 ,7,0,0.,4.8,2.,4.8,0.,4.8,0.,4.8
1979-07-04 12:32:10.300 ,7,0,0.,4.8,2.,4.8,0.,4.8,0.,4.8
1979-07-04 12:32:15.100 ,7,0,0.,4.8,0.,4.8,0.,4.8,0.,4.8
1979-07-04 12:32:19.900 ,7,0,0.,4.8,0.,4.8,0.,4.8,2.,4.8
1979-07-04 12:32:24.700 ,7,0,0.,4.8,0.,4.8,0.,4.8,0.,4.8
1979-07-04 12:32:29.500 ,7,0,0.,4.8,2.,4.8,0.,4.8,0.,4.8
1979-07-04 12:32:34.300 ,7,0,0.,4.8,2.,4.8,0.,4.8,0.,4.8
1979-07-04 12:32:39.100 ,7,0,0.,4.8,1.,4.8,0.,4.8,0.,4.8
1979-07-04 12:32:43.900 ,7,0,0.,4.8,1.,4.8,0.,4.8,1.,4.8
1979-07-04 12:32:48.700 ,6,0,0.,4.8,0.,4.8,0.,4.8,0.,4.8
1979-07-04 12:32:53.500 ,6,0,0.,4.8,1.,4.8,1.,4.8,0.,4.8
1979-07-04 12:32:58.300 ,6,0,0.,4.8,2.,4.8,0.,4.8,0.,4.8
1979-07-04 12:33:03.100 ,6,0,0.,4.8,4.,4.8,2.,4.8,0.,4.8
1979-07-04 12:33:07.900 ,6,0,0.,4.8,3.,4.8,2.,4.8,1.,4.8
1979-07-04 12:33:12.700 ,6,0,0.,4.8,4.,4.8,1.,4.8,0.,4.8
1979-07-04 12:33:17.500 ,6,0,0.,4.8,8.,4.8,2.,4.8,1.,4.8
1979-07-04 12:33:22.300 ,6,0,0.,4.8,1.,4.8,2.,4.8,1.,4.8
1979-07-04 12:33:27.100 ,6,0,0.,4.8,4.,4.8,0.,4.8,0.,4.8
1979-07-04 12:33:31.900 ,6,0,0.,4.8,5.,4.8,1.,4.8,0.,4.8
1979-07-04 12:33:36.700 ,5,0,0.,4.8,2.,4.8,0.,4.8,0.,4.8